(9438) Satie = 1991 PR8 = 1997 EE16 = 1998 QQ55

Discovered at Kitt Peak on 1997-03-05 by Spacewatch.
(9438) Satie = 1997 EE16

Erik Satie (1866-1925), French composer and pianist, is best known for his solo piano pieces, including the Gymnopedies, Gnossiennes, and Nocturnes. The tendency toward extreme simplicity in his music influenced his contemporaries Debussy, Poulenc and Ravel, and later in America, John Cage. [Ref: Minor Planet Circ. 41568]

Orbit

Orbit type: Main Belt

Note: WebGL enabled browser required.

epoch2024-03-31.0
epoch JD2460400.5
perihelion date2021-07-26.89870
perihelion JD2459422.39871
argument of perihelion (°)126.10646
ascending node (°)183.54260
inclination (°)3.84760
eccentricity0.1988240
perihelion distance (AU)1.7880610
Tisserand w.r.t. Jupiter3.6
ΔV w.r.t. Earth (km/sec)8.3
semimajor axis (AU)2.2317956
mean anomaly (°)289.13874
mean daily motion (°/day)0.29561230
aphelion distance (AU)2.676
period (years)3.33
P-vector [x]0.63797099
P-vector [y]-0.72632860
P-vector [z]-0.25581199
Q-vector [x]0.77004923
Q-vector [y]0.59994315
Q-vector [z]0.21700782
absolute magnitude16.09
phase slope0.15
uncertainty0
referenceE2024-GI3
observations used1411
oppositions22
arc length (days)11934
first opposition used1991
last opposition used2024
residual rms (arc-secs)0.66
perturbers coarse indicatorM-v
perturbers precise indicator003Ek
first observation date used1991-08-05.0
last observation date used2024-04-06.0
computer nameMPCLINUX
JD of orbit computation2456937.229755
perihelion JD uncertainty (days)3.0993E-05
argument of perihelion uncertainty (°)4.5849E-05
ascending node uncertainty (°)4.4741E-05
inclination uncertainty (°)3.2936E-06
eccentricity uncertainty 2.5275E-08
perihelion distance uncertainty (AU)5.7340E-08
Minimum Orbit Intersection Distances (in AU)
for orbit epoch: 2460400.5, reference: E2024-GI3
Mercury1.35985
Venus1.06617
Earth0.77683
Mars0.41273
Jupiter2.58388
Saturn6.43586
Uranus15.8277
Neptune27.4576

Observations

1442 total observations over interval: 1991 08 05.28484 – 2023 02 11.177943
These data are available for download (format description).

Date (UT) J2000 RA J2000 Dec Magn Location Ref
1991 08 05.28484 21 09 40.01 -09 19 23.4 17.2   675 – Palomar Mountain MPC 18704
1991 08 08.30399 21 07 19.97 -09 38 23.5 17.5   675 – Palomar Mountain MPC 18704
1991 08 08.33264 21 07 18.75 -09 38 32.8   675 – Palomar Mountain MPC 18704
1994 05 15.22423 15 07 25.25 -11 50 26.8   691 – Steward Observatory, Kitt Peak-Spacewatch MPS 2203
1994 05 15.29130 15 07 21.03 -11 50 02.2 17.9 V 691 – Steward Observatory, Kitt Peak-Spacewatch MPS 2203
1994 05 15.35741 15 07 16.84 -11 49 38.1   691 – Steward Observatory, Kitt Peak-Spacewatch MPS 2203
1994 06 11.16549 14 46 03.76 -09 56 12.6   691 – Steward Observatory, Kitt Peak-Spacewatch MPS 2203
1994 06 11.19113 14 46 03.07 -09 56 14.8   691 – Steward Observatory, Kitt Peak-Spacewatch MPS 2203
1994 06 11.21669 14 46 02.26 -09 56 07.7 18.4 V 691 – Steward Observatory, Kitt Peak-Spacewatch MPS 2203
1997 03 05.41057 12 16 54.62 -02 37 59.3 19.7 V 691 – Steward Observatory, Kitt Peak-Spacewatch MPC 29250
1997 03 05.43165 12 16 53.55 -02 37 50.7 19.5 V 691 – Steward Observatory, Kitt Peak-Spacewatch MPC 29250
1997 03 05.45269 12 16 52.53 -02 37 42.7 19.5 V 691 – Steward Observatory, Kitt Peak-Spacewatch MPC 29250
1997 03 10.36372 12 12 48.16 -02 03 43.0 19.3 V 691 – Steward Observatory, Kitt Peak-Spacewatch MPC 29250
1997 03 10.38460 12 12 47.02 -02 03 34.4 19.5 V 691 – Steward Observatory, Kitt Peak-Spacewatch MPC 29250
1997 03 10.40551 12 12 45.89 -02 03 25.3 19.4 V 691 – Steward Observatory, Kitt Peak-Spacewatch MPC 29250
1997 03 13.41515 12 10 04.54 -01 41 05.3 19.5 V 691 – Steward Observatory, Kitt Peak-Spacewatch MPC 29250
1997 03 13.43680 12 10 03.33 -01 40 55.6 19.1 V 691 – Steward Observatory, Kitt Peak-Spacewatch MPC 29250
1997 03 13.45860 12 10 02.10 -01 40 45.9 19.2 V 691 – Steward Observatory, Kitt Peak-Spacewatch MPC 29250
1998 08 26.11869 02 43 21.65 +14 47 46.0 19.8 V 910 – Caussols-ODAS MPS 2053
1998 08 26.14362 02 43 22.68 +14 47 47.3 19.7 V 910 – Caussols-ODAS MPS 2053
1998 08 26.15982 02 43 23.38 +14 47 47.8 20.2 V 910 – Caussols-ODAS MPS 2053
1998 08 31.06711 02 46 36.55 +14 49 19.8 20.4 V 910 – Caussols-ODAS MPS 2053
1998 08 31.09019 02 46 37.30 +14 49 19.6 20.3 V 910 – Caussols-ODAS MPS 2053
1998 08 31.11326 02 46 38.04 +14 49 19.8 20.3 V 910 – Caussols-ODAS MPS 2053
1998 09 17.12579 02 51 30.04 +14 21 25.1 20.4 V 910 – Caussols-ODAS MPS 2203
1998 09 17.14779 02 51 29.96 +14 21 21.1 20.7 V 910 – Caussols-ODAS MPS 2203
1998 09 17.16750 02 51 29.83 +14 21 17.9 19.7 V 910 – Caussols-ODAS MPS 2203
1998 10 14.37262 02 38 00.25 +11 55 39.4 18.6 R 699 – Lowell Observatory-LONEOS MPS 2979
1998 10 14.39744 02 37 58.88 +11 55 27.6   699 – Lowell Observatory-LONEOS MPS 2979
1998 10 14.42227 02 37 57.50 +11 55 17.9   699 – Lowell Observatory-LONEOS MPS 2979
1998 10 20.40159 02 32 16.97 +11 12 08.6 19.0 R 699 – Lowell Observatory-LONEOS MPS 2979
1998 10 20.42145 02 32 15.74 +11 12 00.5   699 – Lowell Observatory-LONEOS MPS 2979
1998 10 20.44130 02 32 14.52 +11 11 51.3   699 – Lowell Observatory-LONEOS MPS 2979
1998 10 29.29216 02 23 11.53 +10 07 22.0 18.2   704 – Lincoln Laboratory ETS, New Mexico MPS 2979
1998 10 29.31213 02 23 10.31 +10 07 12.7 19.4   704 – Lincoln Laboratory ETS, New Mexico MPS 2979
1998 10 29.33214 02 23 08.99 +10 07 05.3 18.6   704 – Lincoln Laboratory ETS, New Mexico MPS 2979
1998 10 29.35214 02 23 07.72 +10 06 57.2 18.9   704 – Lincoln Laboratory ETS, New Mexico MPS 2979
1998 10 29.37217 02 23 06.35 +10 06 48.3 19.0   704 – Lincoln Laboratory ETS, New Mexico MPS 2979
1998 11 11.18010 02 10 41.99 +08 44 14.2 18.8   704 – Lincoln Laboratory ETS, New Mexico MPS 3284
1998 11 11.20196 02 10 40.78 +08 44 07.5 19.0   704 – Lincoln Laboratory ETS, New Mexico MPS 3284
1998 11 11.24576 02 10 38.34 +08 43 52.4 19.2   704 – Lincoln Laboratory ETS, New Mexico MPS 3284
2000 02 12.30553 09 53 47.92 +08 46 48.8 17.8   704 – Lincoln Laboratory ETS, New Mexico MPS 10611
2000 02 12.31922 09 53 47.03 +08 46 53.5 18.0   704 – Lincoln Laboratory ETS, New Mexico MPS 10611
2000 02 12.33289 09 53 46.18 +08 46 59.7 18.0   704 – Lincoln Laboratory ETS, New Mexico MPS 10611
2000 03 11.11107 09 27 54.49 +11 39 30.1 19.6   704 – Lincoln Laboratory ETS, New Mexico MPS 11643
2000 03 11.13659 09 27 53.27 +11 39 37.5 19.8   704 – Lincoln Laboratory ETS, New Mexico MPS 11643
2000 03 11.14955 09 27 52.66 +11 39 42.5 20.1   704 – Lincoln Laboratory ETS, New Mexico MPS 11643
2001 06 02.42302 21 08 30.16 -10 08 16.8 19.1   644 – Palomar Mountain/NEAT MPS 31973
2001 06 02.43313 21 08 30.75 -10 08 12.8 19.4   644 – Palomar Mountain/NEAT MPS 31973
2001 06 02.44314 21 08 31.33 -10 08 08.8 19.0   644 – Palomar Mountain/NEAT MPS 31973
2001 06 15.36979 21 19 08.64 -08 50 55.9 18.3   704 – Lincoln Laboratory ETS, New Mexico MPS 31973
2001 06 15.38247 21 19 09.06 -08 50 52.1 18.7   704 – Lincoln Laboratory ETS, New Mexico MPS 31973
2001 06 15.39515 21 19 09.48 -08 50 47.6 19.0   704 – Lincoln Laboratory ETS, New Mexico MPS 31973
2001 06 15.40780 21 19 09.92 -08 50 43.7 18.8   704 – Lincoln Laboratory ETS, New Mexico MPS 31973
2001 06 15.42045 21 19 10.37 -08 50 39.7 18.7   704 – Lincoln Laboratory ETS, New Mexico MPS 31973
2001 06 21.36935 21 22 21.01 -08 23 46.0 18.4   704 – Lincoln Laboratory ETS, New Mexico MPS 31973
2001 06 21.38195 21 22 21.32 -08 23 44.3 19.0   704 – Lincoln Laboratory ETS, New Mexico MPS 31973
2001 06 21.39429 21 22 21.59 -08 23 40.6 19.1   704 – Lincoln Laboratory ETS, New Mexico MPS 31973
2001 06 21.40715 21 22 21.93 -08 23 37.1 19.0   704 – Lincoln Laboratory ETS, New Mexico MPS 31973
2001 06 21.42019 21 22 22.12 -08 23 33.4 18.9   704 – Lincoln Laboratory ETS, New Mexico MPS 31973
2001 07 17.30538 21 22 15.05 -07 57 01.2 17.5 R 699 – Lowell Observatory-LONEOS MPS 32619
2001 07 17.33424 21 22 14.20 -07 57 05.4   699 – Lowell Observatory-LONEOS MPS 32619
2001 07 17.36315 21 22 13.33 -07 57 09.0   699 – Lowell Observatory-LONEOS MPS 32619
2001 07 17.39217 21 22 12.49 -07 57 12.5   699 – Lowell Observatory-LONEOS MPS 32619
2001 07 20.35723 21 20 47.78 -08 04 53.8 17.1   704 – Lincoln Laboratory ETS, New Mexico MPS 32619
2001 07 20.36986 21 20 47.38 -08 04 55.6 17.7   704 – Lincoln Laboratory ETS, New Mexico MPS 32619
2001 07 20.38080 21 20 46.99 -08 04 58.2 17.3   704 – Lincoln Laboratory ETS, New Mexico MPS 32619
2001 07 20.39075 21 20 46.66 -08 04 59.5 17.1   704 – Lincoln Laboratory ETS, New Mexico MPS 32619
2001 07 20.40076 21 20 46.31 -08 05 01.4 17.5   704 – Lincoln Laboratory ETS, New Mexico MPS 32619
2001 07 26.58330 21 17 06.15 -08 27 58.4 18.0   608 – Haleakala-AMOS MPS 32619
2001 07 26.59453 21 17 05.68 -08 28 01.3 18.1   608 – Haleakala-AMOS MPS 32619
2001 07 26.60476 21 17 05.24 -08 28 04.0 18.2   608 – Haleakala-AMOS MPS 32619
2001 08 02.56302 21 12 08.31 -09 03 41.3 18.0   608 – Haleakala-AMOS MPS 33011
2001 08 02.57381 21 12 07.80 -09 03 44.7 17.8   608 – Haleakala-AMOS MPS 33011
2001 08 02.58460 21 12 07.27 -09 03 48.4 17.8   608 – Haleakala-AMOS MPS 33011
2001 08 17.26586 21 01 05.13 -10 40 32.5 17.5   704 – Lincoln Laboratory ETS, New Mexico MPS 33813
2001 08 17.27805 21 01 04.57 -10 40 38.0 17.4   704 – Lincoln Laboratory ETS, New Mexico MPS 33813
2001 08 17.29024 21 01 04.00 -10 40 43.7 17.0   704 – Lincoln Laboratory ETS, New Mexico MPS 33813
2001 08 18.32394 21 00 21.61 -10 48 00.2 17.1   644 – Palomar Mountain/NEAT MPS 33813
2001 08 18.33415 21 00 21.15 -10 48 04.4 17.0   644 – Palomar Mountain/NEAT MPS 33813
2001 08 18.34417 21 00 20.71 -10 48 08.8 17.0   644 – Palomar Mountain/NEAT MPS 33813
2001 08 19.26769 20 59 44.06 -10 54 40.1 18.1   704 – Lincoln Laboratory ETS, New Mexico MPS 33813
2001 08 19.28167 20 59 43.42 -10 54 46.1 18.4   704 – Lincoln Laboratory ETS, New Mexico MPS 33813
2001 08 19.29483 20 59 42.86 -10 54 52.0 18.2   704 – Lincoln Laboratory ETS, New Mexico MPS 33813
